Regional Weather Roundup
Issued by NWS

Home | Current Version | Previous Version | Text Only | Print | Product List | Glossary Off
Versions: 1 2 3 4 5 6 7 8 9 10 11 12 13 14 15 16 17 18 19 20 21 22 23 24 25 26 27 28 29 30 31 32 33 34 35 36 37 38 39 40 41 42 43 44 45 46 47 48 49 50

000
ASUS43 KLMK 290102
RWRKY
KENTUCKY REGIONAL WEATHER ROUNDUP
NATIONAL WEATHER SERVICE LOUISVILLE KY
900 PM EDT THU AUG 28 2014

NOTE "FAIR" INDICATES FEW OR NO CLOUDS BELOW 12,000 FEET
WITH NO SIGNIFICANT WEATHER AND/OR OBSTRUCTIONS TO VISIBILITY.

KYZ001>023-026-027-061>063-070>075-290200-
WESTERN AND SOUTH CENTRAL KENTUCKY

CITY           SKY/WX    TMP DP  RH WIND       PRES   REMARKS
PADUCAH        CLOUDY    74  71  91 CALM      29.99R FOG
HENDERSON      CLOUDY    75  72  88 W3        30.00R
OWENSBORO      CLOUDY    76  72  87 CALM      30.01R
HOPKINSVILLE   CLOUDY    78  77  96 S3        30.00R
BOWLING GREEN  MOCLDY    74  71  91 CALM      30.01R
GLASGOW        CLOUDY    74  73  99 CALM      30.01S
$$

KYZ024-025-028>034-038-045-046-053-290200-
NORTH CENTRAL KENTUCKY

CITY           SKY/WX    TMP DP  RH WIND       PRES   REMARKS
LOUISVILLE/SDF PTCLDY    83  69  62 E6        30.02R
LOUISVILLE/LOU PTCLDY    84  68  58 CALM      30.03R
FORT KNOX      MOCLDY    81  72  74 E5        30.02R
$$

KYZ035>037-039>044-047>052-055>060-089>105-290200-
NORTHEAST KENTUCKY

CITY           SKY/WX    TMP DP  RH WIND       PRES   REMARKS
LEXINGTON      CLEAR     80  67  64 E6        30.06R
COVINGTON      PTCLDY    78  62  57 E10       30.06R
FRANKFORT      CLEAR     76  70  82 CALM      30.04R
$$

KYZ054-064>069-076>088-106>120-290200-
SOUTHEAST KENTUCKY

CITY           SKY/WX    TMP DP  RH WIND       PRES   REMARKS
JACKSON        CLEAR     75  67  76 CALM      30.09R
LONDON         CLEAR     78  70  76 CALM      30.07R
SOMERSET       CLEAR     77  68  73 CALM      30.06R
MIDDLESBORO    CLEAR     77  72  84 CALM      30.06R
MONTICELLO     PTCLDY    76  74  93 CALM      30.06R
$$



USA.gov is the U.S. government's official web portal to all federal, state and local government web resources and services.